QPF
0.02 0.04 0.06 0.05 0.04 0.05 0.05 0.05 0.04 0.03 0.04 0.05 0.06 0.06 0.07 0.06 0.05 0.04 0.04 0.04 0.04 0.05 0.06 0.06 0.06 0.07 0.08 0.08 0.08 0.07 0.07 0.07 0.08 0.08 0.07 0.07 0.06 0.06 0.07 0.04 0.02 0.02 0.04
0.03 0.04 0.04 0.03 0.03 0.05 0.05 0.05 0.03 0.03 0.05 0.07 0.09 0.08 0.07 0.06 0.07 0.06 0.06 0.06 0.05 0.05 0.05 0.06 0.06 0.07 0.09 0.09 0.07 0.07 0.06 0.05 0.05 0.06 0.06 0.06 0.05 0.05 0.04 0.04 0.03 0.03 0.04
0.03 0.05 0.04 0.03 0.03 0.05 0.04 0.04 0.05 0.05 0.05 0.06 0.09 0.08 0.07 0.07 0.07 0.07 0.08 0.07 0.07 0.05 0.05 0.05 0.05 0.06 0.07 0.08 0.07 0.06 0.06 0.05 0.05 0.05 0.07 0.07 0.07 0.07 0.06 0.05 0.05 0.04 0.04
0.02 0.05 0.07 0.04 0.03 0.04 0.03 0.03 0.04 0.05 0.05 0.05 0.06 0.08 0.08 0.07 0.08 0.09 0.08 0.08 0.09 0.09 0.06 0.04 0.04 0.04 0.04 0.05 0.05 0.05 0.05 0.05 0.04 0.05 0.06 0.08 0.09 0.09 0.08 0.07 0.05 0.04 0.04
0.01 0.02 0.06 0.07 0.04 0.03 0.04 0.03 0.03 0.04 0.04 0.05 0.04 0.05 0.07 0.09 0.09 0.09 0.10 0.11 0.10 0.09 0.07 0.04 0.03 0.03 0.03 0.04 0.04 0.04 0.04 0.04 0.04 0.04 0.04 0.05 0.07 0.07 0.07 0.07 0.06 0.06 0.05
0.01 0.01 0.02 0.06 0.07 0.04 0.03 0.03 0.03 0.03 0.03 0.03 0.03 0.04 0.04 0.06 0.07 0.08 0.10 0.11 0.10 0.09 0.07 0.06 0.05 0.04 0.04 0.04 0.05 0.05 0.04 0.04 0.04 0.04 0.04 0.04 0.04 0.05 0.05 0.05 0.05 0.06 0.06
0.02 0.02 0.01 0.03 0.04 0.05 0.06 0.04 0.04 0.04 0.03 0.03 0.04 0.03 0.03 0.04 0.03 0.04 0.06 0.09 0.09 0.07 0.07 0.07 0.07 0.05 0.04 0.04 0.05 0.05 0.05 0.04 0.04 0.03 0.03 0.03 0.03 0.03 0.03 0.04 0.03 0.04 0.05
0.02 0.02 0.02 0.03 0.03 0.04 0.06 0.06 0.05 0.05 0.04 0.04 0.04 0.02 0.03 0.04 0.05 0.05 0.03 0.05 0.09 0.10 0.09 0.09 0.12 0.11 0.09 0.07 0.06 0.06 0.05 0.05 0.05 0.04 0.04 0.03 0.02 0.03 0.03 0.03 0.03 0.03 0.03
0.02 0.04 0.03 0.02 0.03 0.04 0.04 0.05 0.04 0.04 0.03 0.03 0.03 0.02 0.02 0.02 0.04 0.05 0.04 0.03 0.06 0.10 0.13 0.15 0.17 0.14 0.11 0.11 0.10 0.08 0.06 0.06 0.05 0.04 0.04 0.04 0.03 0.03 0.02 0.03 0.03 0.04 0.03
0.02 0.02 0.04 0.05 0.04 0.05 0.04 0.04 0.04 0.03 0.03 0.04 0.03 0.02 0.02 0.02 0.03 0.04 0.03 0.03 0.02 0.02 0.04 0.07 0.10 0.10 0.09 0.08 0.09 0.08 0.07 0.06 0.05 0.04 0.05 0.04 0.04 0.03 0.03 0.03 0.04 0.04 0.04
0.02 0.02 0.03 0.05 0.05 0.05 0.05 0.05 0.05 0.04 0.04 0.04 0.03 0.02 0.02 0.02 0.03 0.04 0.04 0.02 0.01 0.01 0.01 0.02 0.03 0.04 0.05 0.05 0.07 0.06 0.05 0.05 0.04 0.04 0.04 0.04 0.05 0.05 0.05 0.05 0.04 0.05 0.06
0.04 0.07 0.06 0.04 0.05 0.06 0.07 0.06 0.04 0.03 0.03 0.03 0.03 0.02 0.03 0.03 0.04 0.04 0.04 0.03 0.03 0.02 0.02 0.02 0.02 0.01 0.02 0.04 0.04 0.05 0.04 0.05 0.04 0.04 0.04 0.03 0.04 0.05 0.06 0.05 0.06 0.07 0.07
0.06 0.15 0.09 0.05 0.05 0.06 0.05 0.04 0.03 0.02 0.02 0.03 0.02 0.02 0.03 0.03 0.04 0.04 0.03 0.03 0.04 0.04 0.03 0.03 0.03 0.03 0.03 0.03 0.03 0.03 0.03 0.03 0.03 0.03 0.04 0.03 0.04 0.05 0.05 0.06 0.07 0.08 0.08
0.03 0.09 0.10 0.08 0.06 0.05 0.04 0.03 0.02 0.02 0.02 0.02 0.02 0.03 0.03 0.03 0.03 0.03 0.04 0.04 0.04 0.04 0.04 0.04 0.04 0.03 0.03 0.03 0.03 0.03 0.02 0.02 0.02 0.02 0.03 0.04 0.05 0.06 0.06 0.06 0.07 0.08 0.09
0.03 0.06 0.07 0.07 0.06 0.06 0.05 0.04 0.03 0.02 0.02 0.02 0.02 0.03 0.03 0.03 0.03 0.03 0.04 0.04 0.04 0.03 0.03 0.04 0.05 0.04 0.04 0.04 0.03 0.03 0.02 0.02 0.03 0.02 0.02 0.03 0.03 0.04 0.05 0.05 0.06 0.07 0.08
0.04 0.05 0.05 0.06 0.07 0.08 0.08 0.05 0.03 0.02 0.02 0.02 0.02 0.02 0.01 0.01 0.02 0.02 0.03 0.04 0.04 0.04 0.05 0.05 0.05 0.05 0.04 0.03 0.02 0.02 0.01 0.02 0.03 0.03 0.03 0.02 0.02 0.03 0.03 0.03 0.03 0.04 0.05
0.07 0.07 0.06 0.06 0.08 0.10 0.10 0.07 0.05 0.03 0.02 0.02 0.01 0.01 0.01 0.01 0.01 0.01 0.03 0.05 0.05 0.06 0.07 0.07 0.06 0.04 0.03 0.03 0.02 0.01 0.02 0.02 0.03 0.03 0.04 0.03 0.03 0.04 0.04 0.03 0.02 0.02 0.03
0.07 0.07 0.05 0.07 0.10 0.11 0.10 0.10 0.09 0.06 0.03 0.02 0.02 0.01 0.01 0.01 0.01 0.02 0.03 0.04 0.06 0.06 0.07 0.06 0.06 0.06 0.05 0.04 0.03 0.02 0.02 0.03 0.03 0.04 0.05 0.05 0.05 0.06 0.05 0.03 0.04 0.05 0.06
0.05 0.07 0.10 0.11 0.11 0.09 0.07 0.06 0.06 0.05 0.04 0.04 0.04 0.03 0.01 0.01 0.01 0.02 0.04 0.05 0.06 0.06 0.05 0.06 0.06 0.06 0.05 0.05 0.04 0.03 0.03 0.04 0.04 0.04 0.05 0.05 0.06 0.05 0.04 0.04 0.05 0.05 0.06
0.04 0.04 0.04 0.05 0.09 0.10 0.11 0.09 0.07 0.06 0.05 0.05 0.03 0.02 0.02 0.02 0.03 0.04 0.04 0.05 0.05 0.05 0.04 0.04 0.05 0.05 0.04 0.05 0.03 0.02 0.03 0.03 0.04 0.05 0.05 0.04 0.03 0.03 0.04 0.03 0.04 0.05 0.06
0.03 0.02 0.02 0.03 0.04 0.06 0.05 0.04 0.04 0.03 0.02 0.02 0.02 0.02 0.02 0.03 0.02 0.03 0.03 0.03 0.02 0.03 0.04 0.03 0.03 0.04 0.04 0.04 0.03 0.01 0.02 0.03 0.04 0.04 0.06 0.07 0.05 0.04 0.04 0.04 0.05 0.05 0.05
0.03 0.03 0.03 0.03 0.04 0.04 0.04 0.03 0.04 0.02 0.02 0.02 0.02 0.02 0.02 0.02 0.01 0.02 0.02 0.02 0.02 0.02 0.04 0.04 0.04 0.03 0.03 0.02 0.02 0.02 0.02 0.01 0.01 0.02 0.03 0.04 0.04 0.03 0.03 0.03 0.03 0.02 0.02
0.03 0.03 0.03 0.03 0.03 0.03 0.03 0.03 0.03 0.03 0.03 0.02 0.02 0.02 0.02 0.02 0.01 0.01 0.01 0.01 0.02 0.02 0.02 0.03 0.04 0.03 0.02 0.02 0.02 0.02 0.02 0.02 0.01 0.02 0.02 0.02 0.01 0.01 0.01 0.01 0.01 0.01 0.01
0.03 0.02 0.02 0.02 0.05 0.06 0.04 0.03 0.02 0.02 0.02 0.02 0.02 0.02 0.02 0.01 0.01 0.01 0.00 0.01 0.01 0.01 0.02 0.02 0.03 0.02 0.02 0.01 0.02 0.02 0.02 0.02 0.01 0.01 0.01 0.01 0.01 0.01 0.01 0.01 0.01 0.02 0.03
0.02 0.02 0.02 0.02 0.05 0.05 0.03 0.02 0.02 0.02 0.02 0.02 0.01 0.01 0.01 0.01 0.01 0.01 0.01 0.02 0.02 0.03 0.02 0.02 0.02 0.01 0.01 0.01 0.01 0.01 0.02 0.02 0.01 0.01 0.01 0.01 0.01 0.02 0.02 0.02 0.02 0.02 0.03
0.02 0.02 0.01 0.01 0.01 0.02 0.02 0.02 0.02 0.02 0.02 0.01 0.01 0.01 0.01 0.01 0.01 0.01 0.01 0.01 0.02 0.03 0.03 0.02 0.01 0.01 0.01 0.00 0.00 0.01 0.01 0.02 0.02 0.02 0.01 0.02 0.02 0.02 0.02 0.02 0.02 0.02 0.02
MSLP
1002.90 1003.73 1004.66 1005.57 1006.40 1007.09 1007.64 1008.07 1008.41 1008.75 1009.12 1009.57 1010.09 1010.67 1011.28 1011.85 1012.34 1012.73 1013.00 1013.17 1013.26 1013.31 1013.37 1013.45 1013.57 1013.73 1013.89 1014.04 1014.14 1014.16 1014.10 1013.95 1013.71 1013.42 1013.08 1012.73 1012.37 1012.02 1011.69 1011.39 1011.14 1010.93 1010.77
1003.02 1003.90 1004.86 1005.80 1006.63 1007.32 1007.84 1008.24 1008.55 1008.87 1009.23 1009.67 1010.21 1010.82 1011.45 1012.06 1012.58 1012.98 1013.26 1013.43 1013.52 1013.56 1013.60 1013.68 1013.79 1013.94 1014.10 1014.26 1014.36 1014.40 1014.35 1014.22 1014.02 1013.77 1013.47 1013.14 1012.81 1012.47 1012.14 1011.82 1011.52 1011.24 1011.01
1003.36 1004.24 1005.20 1006.13 1006.95 1007.60 1008.10 1008.45 1008.73 1009.02 1009.36 1009.79 1010.33 1010.94 1011.59 1012.21 1012.74 1013.16 1013.45 1013.63 1013.72 1013.77 1013.81 1013.89 1014.01 1014.16 1014.32 1014.48 1014.59 1014.64 1014.61 1014.51 1014.35 1014.13 1013.88 1013.61 1013.31 1013.01 1012.68 1012.34 1012.00 1011.65 1011.33
1003.90 1004.75 1005.67 1006.56 1007.34 1007.96 1008.41 1008.73 1008.98 1009.24 1009.55 1009.97 1010.49 1011.10 1011.73 1012.35 1012.88 1013.31 1013.60 1013.78 1013.89 1013.94 1014.00 1014.08 1014.21 1014.36 1014.53 1014.69 1014.80 1014.86 1014.85 1014.77 1014.64 1014.47 1014.27 1014.05 1013.81 1013.54 1013.23 1012.89 1012.50 1012.09 1011.67
1004.61 1005.40 1006.25 1007.08 1007.81 1008.38 1008.80 1009.09 1009.31 1009.55 1009.85 1010.24 1010.74 1011.33 1011.94 1012.53 1013.05 1013.46 1013.75 1013.93 1014.03 1014.10 1014.16 1014.25 1014.38 1014.53 1014.70 1014.85 1014.96 1015.02 1015.02 1014.96 1014.86 1014.73 1014.58 1014.41 1014.22 1014.00 1013.72 1013.37 1012.96 1012.49 1011.99
1005.44 1006.14 1006.91 1007.67 1008.33 1008.86 1009.25 1009.52 1009.74 1009.96 1010.25 1010.62 1011.10 1011.65 1012.23 1012.79 1013.27 1013.65 1013.91 1014.08 1014.17 1014.23 1014.29 1014.38 1014.50 1014.65 1014.81 1014.95 1015.05 1015.10 1015.10 1015.05 1014.96 1014.86 1014.75 1014.63 1014.48 1014.30 1014.05 1013.72 1013.29 1012.78 1012.21
1006.32 1006.92 1007.61 1008.29 1008.90 1009.39 1009.75 1010.02 1010.23 1010.46 1010.74 1011.10 1011.55 1012.06 1012.60 1013.11 1013.54 1013.87 1014.10 1014.23 1014.30 1014.33 1014.38 1014.45 1014.56 1014.69 1014.83 1014.96 1015.05 1015.08 1015.07 1015.01 1014.93 1014.84 1014.75 1014.66 1014.55 1014.40 1014.18 1013.87 1013.44 1012.91 1012.29
1007.17 1007.69 1008.30 1008.91 1009.47 1009.94 1010.29 1010.56 1010.78 1011.01 1011.28 1011.63 1012.05 1012.52 1013.01 1013.46 1013.83 1014.11 1014.29 1014.37 1014.40 1014.41 1014.43 1014.47 1014.56 1014.67 1014.79 1014.89 1014.96 1014.98 1014.95 1014.87 1014.78 1014.69 1014.60 1014.51 1014.42 1014.29 1014.09 1013.80 1013.39 1012.87 1012.23
1007.94 1008.40 1008.95 1009.51 1010.04 1010.48 1010.83 1011.10 1011.34 1011.57 1011.84 1012.17 1012.56 1012.98 1013.41 1013.80 1014.12 1014.34 1014.46 1014.50 1014.49 1014.46 1014.44 1014.46 1014.52 1014.60 1014.70 1014.78 1014.83 1014.82 1014.76 1014.67 1014.55 1014.43 1014.32 1014.21 1014.11 1013.99 1013.80 1013.53 1013.15 1012.65 1012.03
1008.58 1009.01 1009.53 1010.07 1010.58 1011.01 1011.36 1011.64 1011.87 1012.11 1012.37 1012.67 1013.03 1013.41 1013.78 1014.11 1014.37 1014.53 1014.61 1014.60 1014.55 1014.49 1014.44 1014.43 1014.47 1014.53 1014.61 1014.67 1014.69 1014.67 1014.58 1014.45 1014.29 1014.13 1013.97 1013.83 1013.69 1013.54 1013.36 1013.10 1012.75 1012.29 1011.72
1009.09 1009.53 1010.04 1010.58 1011.08 1011.51 1011.87 1012.14 1012.38 1012.60 1012.84 1013.12 1013.43 1013.76 1014.08 1014.36 1014.56 1014.69 1014.72 1014.68 1014.61 1014.52 1014.45 1014.42 1014.44 1014.49 1014.55 1014.59 1014.60 1014.55 1014.44 1014.27 1014.06 1013.84 1013.62 1013.41 1013.22 1013.03 1012.82 1012.57 1012.24 1011.83 1011.32
1009.51 1009.96 1010.49 1011.04 1011.55 1011.98 1012.34 1012.61 1012.84 1013.04 1013.25 1013.49 1013.76 1014.04 1014.31 1014.54 1014.71 1014.80 1014.81 1014.75 1014.66 1014.56 1014.48 1014.44 1014.45 1014.48 1014.53 1014.57 1014.56 1014.50 1014.35 1014.14 1013.88 1013.59 1013.30 1013.01 1012.74 1012.49 1012.25 1011.98 1011.68 1011.31 1010.86
1009.86 1010.35 1010.90 1011.46 1011.98 1012.42 1012.78 1013.04 1013.25 1013.43 1013.61 1013.80 1014.02 1014.26 1014.48 1014.68 1014.81 1014.88 1014.88 1014.81 1014.71 1014.61 1014.53 1014.48 1014.48 1014.51 1014.55 1014.58 1014.56 1014.47 1014.30 1014.06 1013.74 1013.39 1013.02 1012.65 1012.30 1011.98 1011.69 1011.40 1011.09 1010.76 1010.38
1010.20 1010.71 1011.28 1011.85 1012.38 1012.82 1013.17 1013.43 1013.62 1013.77 1013.91 1014.07 1014.25 1014.43 1014.62 1014.78 1014.90 1014.95 1014.93 1014.87 1014.77 1014.66 1014.57 1014.52 1014.50 1014.52 1014.55 1014.57 1014.53 1014.43 1014.24 1013.96 1013.61 1013.20 1012.75 1012.31 1011.89 1011.50 1011.15 1010.83 1010.52 1010.20 1009.86
1010.54 1011.06 1011.63 1012.21 1012.74 1013.18 1013.52 1013.77 1013.94 1014.06 1014.17 1014.29 1014.43 1014.58 1014.74 1014.87 1014.96 1015.00 1014.97 1014.90 1014.80 1014.68 1014.58 1014.51 1014.48 1014.48 1014.49 1014.48 1014.43 1014.31 1014.11 1013.80 1013.42 1012.97 1012.48 1011.98 1011.49 1011.05 1010.64 1010.28 1009.96 1009.65 1009.34
1010.90 1011.40 1011.96 1012.52 1013.04 1013.47 1013.80 1014.04 1014.19 1014.30 1014.38 1014.48 1014.58 1014.70 1014.83 1014.94 1015.00 1015.02 1014.99 1014.90 1014.79 1014.65 1014.53 1014.44 1014.38 1014.34 1014.32 1014.29 1014.22 1014.08 1013.86 1013.54 1013.14 1012.67 1012.15 1011.61 1011.09 1010.60 1010.16 1009.77 1009.43 1009.12 1008.81
1011.25 1011.71 1012.24 1012.78 1013.28 1013.69 1014.01 1014.23 1014.37 1014.46 1014.54 1014.61 1014.70 1014.80 1014.90 1014.98 1015.03 1015.02 1014.97 1014.86 1014.72 1014.56 1014.40 1014.28 1014.18 1014.10 1014.05 1013.98 1013.88 1013.73 1013.49 1013.17 1012.76 1012.28 1011.76 1011.21 1010.68 1010.17 1009.71 1009.30 1008.93 1008.61 1008.30
1011.56 1011.98 1012.47 1012.98 1013.44 1013.83 1014.13 1014.34 1014.47 1014.56 1014.63 1014.70 1014.77 1014.86 1014.93 1015.00 1015.02 1014.98 1014.90 1014.76 1014.59 1014.39 1014.21 1014.04 1013.90 1013.78 1013.69 1013.59 1013.47 1013.29 1013.04 1012.72 1012.31 1011.84 1011.32 1010.78 1010.25 1009.74 1009.27 1008.85 1008.48 1008.14 1007.82
1011.80 1012.18 1012.64 1013.10 1013.53 1013.89 1014.17 1014.37 1014.50 1014.59 1014.66 1014.73 1014.80 1014.88 1014.94 1014.98 1014.97 1014.91 1014.79 1014.62 1014.41 1014.19 1013.96 1013.76 1013.59 1013.44 1013.31 1013.19 1013.04 1012.84 1012.58 1012.25 1011.85 1011.39 1010.88 1010.35 1009.82 1009.32 1008.85 1008.43 1008.05 1007.71 1007.38
1011.96 1012.32 1012.74 1013.17 1013.57 1013.90 1014.16 1014.35 1014.49 1014.58 1014.66 1014.74 1014.81 1014.88 1014.92 1014.94 1014.90 1014.81 1014.65 1014.45 1014.21 1013.96 1013.71 1013.49 1013.29 1013.13 1012.98 1012.83 1012.67 1012.46 1012.19 1011.84 1011.43 1010.97 1010.46 1009.93 1009.41 1008.91 1008.45 1008.03 1007.65 1007.30 1006.97
1012.05 1012.40 1012.81 1013.21 1013.58 1013.89 1014.13 1014.32 1014.45 1014.56 1014.65 1014.73 1014.81 1014.87 1014.90 1014.89 1014.82 1014.69 1014.51 1014.27 1014.01 1013.74 1013.49 1013.26 1013.06 1012.89 1012.74 1012.59 1012.41 1012.18 1011.89 1011.53 1011.10 1010.61 1010.09 1009.54 1009.01 1008.50 1008.04 1007.62 1007.24 1006.89 1006.56
1012.07 1012.44 1012.85 1013.24 1013.59 1013.88 1014.11 1014.29 1014.43 1014.55 1014.65 1014.74 1014.81 1014.86 1014.87 1014.83 1014.73 1014.57 1014.35 1014.10 1013.82 1013.55 1013.29 1013.07 1012.89 1012.73 1012.59 1012.44 1012.26 1012.02 1011.70 1011.31 1010.84 1010.32 1009.76 1009.18 1008.62 1008.09 1007.60 1007.17 1006.79 1006.45 1006.12
1012.05 1012.46 1012.88 1013.27 1013.61 1013.89 1014.12 1014.30 1014.44 1014.57 1014.68 1014.77 1014.84 1014.87 1014.86 1014.79 1014.65 1014.45 1014.20 1013.92 1013.64 1013.36 1013.12 1012.92 1012.76 1012.62 1012.50 1012.36 1012.17 1011.91 1011.58 1011.15 1010.64 1010.06 1009.45 1008.82 1008.21 1007.65 1007.14 1006.69 1006.30 1005.96 1005.65
1012.01 1012.46 1012.90 1013.30 1013.64 1013.92 1014.14 1014.32 1014.48 1014.61 1014.72 1014.81 1014.87 1014.88 1014.84 1014.73 1014.55 1014.32 1014.04 1013.74 1013.44 1013.16 1012.93 1012.75 1012.61 1012.50 1012.39 1012.25 1012.07 1011.80 1011.43 1010.97 1010.42 1009.79 1009.13 1008.45 1007.80 1007.19 1006.65 1006.18 1005.78 1005.44 1005.14
1011.97 1012.45 1012.91 1013.31 1013.65 1013.93 1014.16 1014.35 1014.51 1014.64 1014.75 1014.84 1014.88 1014.87 1014.79 1014.65 1014.43 1014.16 1013.84 1013.52 1013.21 1012.93 1012.70 1012.52 1012.40 1012.29 1012.19 1012.06 1011.87 1011.59 1011.21 1010.72 1010.13 1009.48 1008.78 1008.07 1007.38 1006.75 1006.18 1005.70 1005.29 1004.95 1004.66
1011.90 1012.40 1012.86 1013.27 1013.61 1013.89 1014.12 1014.31 1014.47 1014.61 1014.72 1014.80 1014.82 1014.78 1014.68 1014.50 1014.25 1013.94 1013.60 1013.25 1012.92 1012.63 1012.40 1012.22 1012.08 1011.98 1011.87 1011.73 1011.53 1011.24 1010.85 1010.36 1009.77 1009.12 1008.42 1007.72 1007.03 1006.40 1005.83 1005.35 1004.94 1004.60 1004.31
Thickness
5778 5774 5770 5765 5760 5755 5750 5747 5743 5741 5737 5732 5728 5724 5722 5721 5718 5715 5712 5709 5705 5701 5697 5694 5691 5688 5684 5681 5678 5676 5673 5672 5672 5668 5668 5672 5675 5673 5672 5671 5670 5669 5669
5771 5767 5764 5760 5755 5750 5747 5744 5740 5737 5733 5729 5726 5722 5720 5717 5714 5712 5709 5705 5701 5698 5695 5690 5686 5683 5679 5676 5673 5670 5667 5667 5666 5661 5658 5658 5662 5664 5666 5664 5663 5663 5663
5767 5763 5760 5756 5753 5748 5744 5741 5737 5733 5730 5726 5723 5719 5716 5713 5709 5705 5703 5700 5696 5693 5691 5688 5683 5679 5676 5672 5669 5666 5662 5659 5660 5658 5653 5649 5648 5652 5657 5657 5657 5657 5656
5767 5761 5757 5752 5749 5746 5742 5738 5734 5730 5726 5722 5718 5714 5709 5706 5704 5701 5698 5694 5691 5687 5685 5682 5679 5675 5672 5669 5666 5663 5660 5656 5653 5653 5652 5649 5646 5642 5644 5648 5651 5651 5651
5764 5758 5755 5751 5748 5744 5738 5734 5730 5726 5722 5718 5714 5710 5706 5703 5700 5697 5693 5688 5685 5682 5680 5677 5674 5671 5668 5665 5662 5659 5656 5653 5650 5647 5646 5644 5643 5641 5637 5637 5641 5644 5645
5760 5755 5753 5749 5744 5741 5736 5731 5725 5721 5718 5714 5710 5705 5701 5698 5694 5690 5687 5684 5680 5677 5674 5672 5669 5666 5664 5661 5658 5655 5652 5649 5646 5644 5642 5640 5637 5635 5634 5632 5633 5635 5638
5754 5748 5745 5742 5737 5734 5730 5727 5722 5716 5713 5710 5705 5701 5697 5694 5690 5686 5683 5678 5674 5671 5669 5667 5665 5662 5659 5657 5654 5651 5648 5645 5642 5640 5638 5637 5636 5634 5632 5629 5629 5630 5633
5747 5743 5740 5738 5733 5729 5725 5722 5716 5712 5709 5705 5701 5697 5694 5690 5687 5683 5679 5674 5671 5669 5666 5663 5661 5658 5655 5653 5650 5648 5645 5642 5639 5638 5635 5633 5632 5631 5629 5626 5624 5623 5625
5742 5738 5735 5732 5729 5724 5720 5717 5712 5707 5704 5701 5696 5693 5690 5686 5683 5679 5675 5671 5668 5665 5662 5659 5657 5655 5652 5649 5647 5644 5641 5639 5636 5634 5631 5629 5628 5627 5627 5625 5622 5618 5616
5737 5734 5729 5724 5721 5719 5716 5713 5709 5704 5700 5697 5692 5689 5685 5682 5678 5675 5672 5668 5665 5662 5659 5657 5655 5651 5649 5646 5643 5641 5638 5635 5633 5630 5627 5624 5623 5623 5622 5621 5619 5617 5613
5730 5726 5723 5719 5716 5713 5710 5706 5703 5699 5695 5692 5688 5684 5680 5677 5674 5671 5668 5665 5662 5659 5656 5654 5651 5648 5645 5643 5640 5638 5636 5632 5629 5627 5624 5621 5620 5618 5616 5615 5614 5613 5611
5724 5719 5716 5714 5711 5707 5705 5701 5698 5694 5691 5688 5684 5680 5676 5673 5670 5667 5664 5661 5659 5656 5654 5651 5648 5645 5643 5640 5637 5634 5632 5629 5625 5623 5621 5618 5616 5613 5611 5610 5609 5608 5607
5715 5711 5708 5707 5704 5702 5699 5696 5693 5690 5688 5685 5681 5676 5673 5669 5666 5664 5661 5659 5656 5654 5652 5649 5646 5643 5640 5637 5634 5631 5629 5626 5623 5621 5617 5615 5612 5609 5607 5606 5605 5604 5604
5708 5703 5700 5698 5697 5697 5694 5691 5689 5687 5685 5681 5677 5673 5670 5666 5664 5661 5659 5656 5654 5651 5649 5646 5643 5641 5638 5635 5632 5628 5625 5623 5621 5618 5615 5613 5610 5607 5605 5603 5601 5600 5598
5703 5700 5697 5696 5695 5693 5690 5687 5685 5683 5681 5677 5673 5670 5667 5664 5661 5658 5656 5654 5652 5649 5646 5643 5640 5638 5635 5631 5627 5624 5623 5619 5617 5615 5612 5611 5608 5606 5603 5601 5598 5596 5594
5697 5695 5694 5692 5690 5687 5685 5682 5680 5679 5677 5673 5670 5667 5664 5661 5658 5655 5653 5651 5649 5646 5643 5639 5637 5634 5631 5626 5622 5620 5618 5615 5613 5611 5609 5608 5606 5603 5601 5598 5596 5594 5590
5691 5689 5689 5688 5685 5683 5680 5677 5675 5675 5672 5670 5667 5665 5662 5658 5655 5653 5651 5648 5645 5643 5639 5637 5634 5630 5626 5623 5619 5617 5613 5612 5610 5608 5606 5605 5604 5600 5598 5596 5593 5591 5589
5686 5685 5684 5683 5682 5680 5677 5675 5671 5670 5668 5666 5664 5662 5659 5656 5653 5650 5647 5644 5642 5639 5637 5634 5632 5628 5624 5620 5617 5614 5611 5610 5608 5607 5604 5601 5599 5597 5593 5592 5590 5589 5587
5683 5682 5682 5681 5679 5677 5674 5671 5668 5667 5665 5662 5660 5658 5656 5653 5650 5647 5644 5642 5639 5637 5635 5633 5630 5626 5622 5618 5615 5611 5609 5608 5607 5606 5603 5599 5596 5592 5588 5586 5585 5583 5583
5682 5681 5681 5678 5676 5674 5672 5667 5665 5663 5661 5660 5658 5656 5654 5651 5648 5645 5642 5640 5637 5635 5633 5630 5628 5624 5620 5616 5612 5608 5607 5605 5604 5602 5599 5596 5592 5588 5584 5580 5579 5577 5577
5678 5679 5677 5674 5673 5672 5669 5666 5664 5661 5660 5660 5657 5654 5651 5649 5647 5644 5641 5638 5635 5633 5630 5627 5625 5622 5618 5615 5610 5606 5603 5601 5599 5597 5595 5593 5588 5584 5579 5575 5573 5572 5571
5675 5675 5673 5672 5671 5670 5667 5664 5662 5661 5660 5658 5654 5651 5649 5647 5645 5641 5638 5636 5633 5629 5627 5624 5622 5620 5617 5613 5609 5604 5599 5596 5593 5592 5590 5588 5583 5579 5576 5573 5571 5569 5566
5672 5672 5671 5670 5668 5667 5665 5662 5660 5660 5658 5654 5651 5648 5646 5644 5642 5639 5636 5633 5631 5627 5624 5622 5620 5617 5615 5611 5606 5601 5597 5593 5589 5588 5586 5582 5579 5576 5574 5571 5569 5566 5563
5670 5669 5669 5666 5664 5663 5663 5661 5659 5657 5654 5651 5647 5645 5643 5641 5640 5637 5635 5632 5629 5626 5623 5620 5617 5614 5611 5606 5601 5598 5595 5590 5587 5584 5582 5580 5578 5574 5571 5568 5567 5564 5562
5668 5667 5666 5664 5663 5662 5661 5659 5657 5655 5651 5648 5645 5644 5642 5641 5638 5635 5632 5630 5627 5624 5619 5616 5613 5608 5605 5600 5595 5591 5590 5587 5584 5579 5579 5578 5576 5573 5570 5568 5565 5562 5560
5665 5665 5665 5664 5663 5661 5659 5658 5656 5653 5649 5646 5643 5642 5641 5639 5637 5634 5631 5627 5623 5619 5616 5612 5608 5604 5600 5596 5593 5589 5586 5582 5578 5575 5576 5575 5572 5569 5567 5564 5561 5559 5556